Fredericksburg, TX

10:01 PM CST on February 17, 2018 (GMT -0600)
Fredericksburg

Weather History for KT82 - November, 2012

Change the Weather History Date:

Wednesday, November 28, 2012

  Actual Average (KSAT) Record (KSAT)
Temperature  
Mean Temperature 48 °F -  
Max Temperature 67 °F 65 °F 90 °F (1949)
Min Temperature 30 °F 42 °F 25 °F (1993)
Degree Days  
Heating Degree Days 16    
Moisture  
Dew Point 38 °F    
Average Humidity 77    
Maximum Humidity 100    
Minimum Humidity 39    
Precipitation  
Precipitation 0.00 in - - ()
Sea Level Pressure  
Sea Level Pressure 30.33 in    
Wind  
Wind Speed 1 mph (SSE)    
Max Wind Speed 8 mph    
Max Gust Speed -    
Visibility 10 miles    
Events      
Averages and records for this station are not official NWS values.
T = Trace of Precipitation, MM = Missing Value Source: NWS Daily Summary

Daily Weather History Graph

Daily Weather History Graph

Search for Another Location

Airport or City:

Trip Planner

Search our weather history database for the weather conditions in past years. The results will help you decide how hot, cold, wet, or windy it might be!

Date:

Astronomy

Nov. 28, 2012 Rise Set
Actual Time 7:12 AM CST 5:35 PM CST
Civil Twilight 6:46 AM CST 6:01 PM CST
Nautical Twilight 6:16 AM CST 6:30 PM CST
Astronomical Twilight 5:48 AM CST 6:59 PM CST
Moon 5:51 PM CST (11/28) 7:11 AM CST (11/28)
Length of Visible Light 11h 14m
Length of Day
10h 22m
Full, 100% of the Moon is Illuminated
Nov 28
Full
Dec 6
Last Quarter
Dec 13
New
Dec 19
First Quarter
Dec 28
Full

Hourly Weather History & Observations

Time (CST) Temp. Windchill Dew Point Humidity Pressure Visibility Wind Dir Wind Speed Gust Speed Precip Events Conditions
12:15 AM 34.5 °F - 32.9 °F 94% 30.33 in 10.0 mi Calm Calm - N/A   Clear
12:35 AM 33.6 °F - 32.0 °F 94% 30.33 in 10.0 mi Calm Calm - N/A   Clear
12:55 AM 34.2 °F - 32.4 °F 93% 30.33 in 10.0 mi Calm Calm - N/A   Clear
1:15 AM 33.8 °F - 32.0 °F 93% 30.33 in 10.0 mi Calm Calm - N/A   Clear
1:35 AM 33.3 °F - 32.0 °F 95% 30.32 in 10.0 mi Calm Calm - N/A   Clear
1:55 AM 32.7 °F - 31.8 °F 96% 30.33 in 10.0 mi Calm Calm - N/A   Clear
2:15 AM 33.1 °F - 32.0 °F 96% 30.32 in 10.0 mi Calm Calm - N/A   Clear
2:35 AM 32.9 °F 29.8 °F 32.0 °F 96% 30.32 in 10.0 mi West 3.5 mph - N/A   Clear
2:55 AM 33.1 °F - 32.0 °F 96% 30.33 in 10.0 mi Calm Calm - N/A   Clear
3:15 AM 32.5 °F 29.3 °F 31.5 °F 96% 30.33 in 10.0 mi WSW 3.5 mph - N/A   Clear
3:35 AM 32.2 °F - 31.5 °F 97% 30.33 in 10.0 mi Calm Calm - N/A   Clear
3:55 AM 32.0 °F 28.7 °F 30.9 °F 96% 30.33 in 10.0 mi West 3.5 mph - N/A   Clear
4:15 AM 32.0 °F - 30.9 °F 96% 30.33 in 10.0 mi Calm Calm - N/A   Clear
4:35 AM 32.0 °F - 31.5 °F 98% 30.33 in 10.0 mi Calm Calm - N/A   Clear
4:55 AM 31.1 °F - 30.4 °F 97% 30.34 in 10.0 mi Calm Calm - N/A   Clear
5:15 AM 31.8 °F - 30.7 °F 96% 30.34 in 10.0 mi Calm Calm - N/A   Clear
5:35 AM 30.7 °F - 30.2 °F 98% 30.35 in 10.0 mi Calm Calm - N/A   Clear
5:55 AM 31.8 °F - 30.9 °F 96% 30.35 in 10.0 mi Calm Calm - N/A   Clear
6:15 AM 31.6 °F - 30.2 °F 94% 30.36 in 10.0 mi Calm Calm - N/A   Clear
6:35 AM 31.6 °F - 30.6 °F 96% 30.37 in 10.0 mi Calm Calm - N/A   Clear
6:55 AM 31.6 °F - 30.6 °F 96% 30.38 in 10.0 mi Calm Calm - N/A   Clear
7:15 AM 30.9 °F - 30.9 °F 100% 30.38 in 10.0 mi Calm Calm - N/A   Clear
7:35 AM 30.9 °F - 30.9 °F 100% 30.39 in 10.0 mi Calm Calm - N/A   Clear
7:55 AM 32.0 °F - 31.8 °F 99% 30.39 in 10.0 mi Calm Calm - N/A   Clear
8:15 AM 33.3 °F - 32.5 °F 97% 30.40 in 10.0 mi Calm Calm - N/A   Clear
8:35 AM 35.8 °F - 33.4 °F 91% 30.40 in 10.0 mi Calm Calm - N/A   Clear
8:55 AM 38.7 °F - 35.8 °F 89% 30.40 in 10.0 mi Calm Calm - N/A   Clear
9:15 AM 42.4 °F - 37.6 °F 83% 30.41 in 10.0 mi Calm Calm - N/A   Clear
9:55 AM 48.2 °F - 40.1 °F 74% 30.41 in 10.0 mi Calm Calm - N/A   Clear
10:15 AM 51.3 °F - 40.8 °F 67% 30.40 in 10.0 mi Calm Calm - N/A   Clear
10:35 AM 54.3 °F - 42.1 °F 63% 30.40 in 10.0 mi Calm Calm - N/A   Clear
10:55 AM 57.0 °F - 42.1 °F 57% 30.40 in 10.0 mi SSE 4.6 mph - N/A   Clear
11:15 AM 58.3 °F - 42.6 °F 56% 30.39 in 10.0 mi SW 4.6 mph - N/A   Clear
11:35 AM 60.8 °F - 43.0 °F 52% 30.37 in 10.0 mi ESE 4.6 mph - N/A   Clear
11:55 AM 61.2 °F - 43.0 °F 51% 30.37 in 10.0 mi SSW 3.5 mph - N/A   Clear
12:15 PM 62.1 °F - 43.5 °F 51% 30.35 in 10.0 mi South 6.9 mph - N/A   Clear
12:55 PM 64.2 °F - 43.7 °F 47% 30.33 in 4.0 mi SE 5.8 mph - N/A   Haze
1:15 PM 64.9 °F - 43.9 °F 46% 30.32 in 10.0 mi SE 6.9 mph - N/A   Clear
1:35 PM 64.9 °F - 43.9 °F 46% 30.31 in 10.0 mi South 5.8 mph - N/A   Clear
1:55 PM 65.7 °F - 43.9 °F 45% 30.30 in 10.0 mi SSE 6.9 mph - N/A   Clear
2:15 PM 66.2 °F - 43.7 °F 44% 30.29 in 10.0 mi SE 5.8 mph - N/A   Clear
2:35 PM 66.4 °F - 43.2 °F 43% 30.28 in 10.0 mi SSE 4.6 mph - N/A   Clear
2:55 PM 67.3 °F - 43.9 °F 43% 30.28 in 10.0 mi SSW 4.6 mph - N/A   Clear
3:15 PM 67.1 °F - 44.1 °F 43% 30.27 in 10.0 mi SSE 6.9 mph - N/A   Clear
3:35 PM 67.3 °F - 42.8 °F 41% 30.27 in 10.0 mi SSE 6.9 mph - N/A   Clear
3:55 PM 66.7 °F - 40.6 °F 39% 30.26 in 10.0 mi South 8.1 mph - N/A   Clear
4:15 PM 66.6 °F - 41.0 °F 39% 30.26 in 10.0 mi SE 5.8 mph - N/A   Clear
4:35 PM 65.5 °F - 41.4 °F 41% 30.26 in 10.0 mi SSE 6.9 mph - N/A   Clear
4:55 PM 64.6 °F - 41.9 °F 44% 30.27 in 10.0 mi SSE 5.8 mph - N/A   Clear
5:15 PM 62.8 °F - 41.5 °F 46% 30.27 in 10.0 mi SSE 4.6 mph - N/A   Clear
5:35 PM 60.6 °F - 43.2 °F 53% 30.27 in 10.0 mi SE 4.6 mph - N/A   Clear
5:55 PM 58.6 °F - 43.7 °F 58% 30.28 in 10.0 mi SE 4.6 mph - N/A   Clear
6:35 PM 55.8 °F - 44.2 °F 65% 30.29 in 10.0 mi SSE 4.6 mph - N/A   Clear
6:55 PM 54.7 °F - 44.1 °F 67% 30.29 in 10.0 mi SSE 4.6 mph - N/A   Clear
7:35 PM 52.2 °F - 43.7 °F 73% 30.30 in 10.0 mi Calm Calm - N/A   Clear
7:55 PM 48.4 °F - 42.1 °F 79% 30.30 in 10.0 mi Calm Calm - N/A   Clear
8:15 PM 45.1 °F - 41.0 °F 85% 30.30 in 10.0 mi Calm Calm - N/A   Clear
8:35 PM 45.7 °F - 41.2 °F 84% 30.30 in 10.0 mi Calm Calm - N/A   Clear
8:55 PM 42.4 °F - 39.9 °F 91% 30.30 in 10.0 mi Calm Calm - N/A   Clear
9:15 PM 40.8 °F - 39.4 °F 95% 30.30 in 10.0 mi Calm Calm - N/A   Clear
9:35 PM 41.0 °F - 39.2 °F 93% 30.29 in 10.0 mi Calm Calm - N/A   Clear
9:55 PM 42.1 °F - 39.6 °F 91% 30.29 in 10.0 mi Calm Calm - N/A   Clear
10:15 PM 40.8 °F - 38.5 °F 91% 30.29 in 10.0 mi Calm Calm - N/A   Clear
10:35 PM 38.3 °F - 37.4 °F 97% 30.29 in 10.0 mi Calm Calm - N/A   Clear
10:55 PM 38.8 °F - 36.9 °F 93% 30.28 in 10.0 mi Calm Calm - N/A   Clear
11:15 PM 38.5 °F - 37.6 °F 97% 30.28 in 10.0 mi Calm Calm - N/A   Clear
11:35 PM 38.3 °F - 38.1 °F 99% 30.27 in 10.0 mi Calm Calm - N/A   Clear